Wind_Speed
2 2 2 2 2 3 3 3 4 5 6 7 7 8 9 10 11 12 13 12 12 11 11 11 10 10 10 10 10 9 8 8 7 6 6 5 5 4 4 4 4 4 4
3 2 2 2 2 2 3 4 5 6 7 8 9 9 10 11 12 13 13 13 13 13 12 12 12 11 11 11 11 11 10 9 8 7 7 6 6 5 4 4 4 4 4
3 3 3 3 2 3 4 5 6 7 8 9 10 11 11 12 12 13 13 13 13 14 14 13 13 13 13 13 12 12 12 11 10 9 8 7 6 5 5 4 4 3 3
4 4 3 3 3 3 5 6 7 8 9 10 10 11 12 12 13 13 13 14 14 15 15 14 14 14 14 14 14 13 12 11 10 10 9 9 8 7 6 5 4 3 3
4 4 3 3 3 4 5 7 8 9 9 10 10 11 12 12 12 13 14 14 15 15 15 15 15 15 15 15 15 14 13 12 11 11 10 9 8 8 7 6 5 4 3
4 3 3 4 4 5 6 7 8 9 9 9 10 11 11 11 12 12 12 13 14 14 14 15 15 16 16 15 15 15 14 13 13 12 11 10 9 9 8 7 6 5 4
3 3 4 4 5 6 6 7 8 8 8 9 10 10 10 11 12 12 12 13 13 14 14 15 16 15 16 15 16 16 15 14 13 13 12 11 10 10 9 8 7 6 5
3 3 4 4 4 5 6 7 7 7 8 9 9 10 10 11 11 12 13 13 13 14 14 15 16 16 16 17 16 16 16 15 15 14 13 12 11 11 10 10 8 7 6
4 3 4 4 4 4 5 6 6 7 8 9 9 10 11 11 12 12 13 13 13 13 14 15 15 16 16 17 16 16 16 16 16 15 14 13 12 12 11 11 10 9 7
3 3 4 3 3 4 5 6 6 7 8 9 10 11 12 12 12 13 13 13 13 14 14 15 16 16 16 16 17 17 17 17 17 16 15 14 13 13 13 13 11 10 8
4 3 3 3 3 4 5 6 7 8 9 10 11 12 13 13 13 13 13 14 14 14 15 15 16 16 16 16 16 17 17 18 18 18 16 15 15 14 14 14 13 11 10
4 3 3 3 4 4 5 6 7 9 10 11 12 13 13 13 13 13 14 14 15 15 15 15 16 16 17 17 17 17 17 18 19 19 18 17 17 16 15 15 14 13 11
4 4 4 3 4 4 5 7 8 10 11 12 13 13 13 13 13 14 14 15 15 15 16 16 16 17 17 17 18 18 17 18 19 19 20 19 18 18 17 16 15 14 13
4 4 3 3 4 5 6 8 9 11 12 13 13 13 13 14 14 14 15 15 15 15 16 16 16 16 17 17 18 19 19 19 20 19 20 21 20 19 19 18 17 16 15
4 4 3 4 5 6 7 8 10 11 13 13 14 14 14 14 14 14 15 15 15 16 16 16 16 17 17 17 18 18 19 19 20 20 20 21 22 21 20 20 18 17 17
4 4 4 5 6 6 7 9 10 11 12 13 14 14 14 14 14 14 15 15 15 15 15 15 15 16 17 17 18 18 19 19 21 22 21 21 23 23 22 21 19 19 19
4 4 4 5 6 7 8 9 10 11 13 13 14 14 14 14 14 14 15 15 15 15 14 14 14 15 16 16 17 18 19 19 21 22 22 22 23 24 23 22 21 20 21
5 4 5 6 6 7 8 9 10 11 12 13 14 14 14 14 14 15 15 16 16 15 15 14 14 14 14 15 16 17 18 19 20 22 23 23 23 24 24 23 23 22 22
5 5 5 6 6 7 9 9 10 11 12 13 13 14 15 15 15 16 16 16 16 15 15 14 13 13 13 13 14 16 17 19 20 22 23 24 24 25 25 24 24 23 23
6 5 6 6 7 8 9 10 11 11 12 13 13 14 15 16 16 16 16 16 16 15 14 13 12 12 12 12 13 14 16 17 19 21 23 24 24 26 26 25 24 24 24
6 6 6 7 7 8 9 10 11 11 12 13 13 15 16 16 17 17 16 16 16 15 13 12 11 10 10 11 12 13 15 16 18 20 22 24 24 26 26 27 25 25 24
7 7 7 7 8 9 9 10 11 12 12 13 14 15 16 16 17 17 17 16 16 15 13 12 10 9 9 10 11 12 14 15 17 19 21 24 24 25 26 27 26 25 24
7 8 7 7 8 9 10 10 11 12 12 13 14 15 16 17 17 17 17 16 16 15 13 12 10 9 8 8 9 10 11 13 16 18 21 23 24 25 26 27 26 26 25
8 8 8 8 9 9 10 10 11 12 12 13 14 15 16 17 17 17 17 17 16 15 13 12 10 8 7 6 7 8 9 11 14 17 19 22 23 24 26 27 26 26 26
8 8 9 9 9 10 10 10 11 11 12 13 14 14 16 17 17 17 17 16 15 14 13 11 9 7 6 5 5 6 8 9 12 15 18 20 22 24 25 26 26 25 25
8 8 9 9 10 10 10 10 11 11 12 13 14 14 15 16 17 17 17 16 15 14 13 11 9 7 5 4 5 6 7 9 11 13 15 17 20 23 24 26 27 26 25
Wind_Direction
216 224 245 258 262 273 279 285 282 281 283 278 277 278 279 278 277 276 274 273 268 262 261 262 262 261 257 255 258 260 262 267 272 277 280 282 286 291 294 293 298 299 290
223 236 253 265 275 279 287 292 291 285 286 284 282 284 283 282 281 279 276 273 269 266 264 263 264 263 259 255 255 259 259 262 268 270 272 271 275 279 281 287 291 290 281
231 242 257 267 270 286 293 297 295 295 293 292 290 288 285 283 281 279 276 276 276 271 266 264 263 262 260 256 255 257 258 261 263 262 264 263 264 267 269 277 278 278 270
230 244 257 262 275 293 298 300 298 297 297 296 296 293 290 287 284 283 279 276 275 273 269 265 264 263 260 258 256 255 255 257 260 257 259 259 255 255 258 261 257 261 252
234 247 255 265 282 296 301 303 304 302 301 298 297 296 295 293 289 285 281 277 274 273 271 267 266 262 260 259 257 254 252 253 254 253 255 254 249 244 244 246 244 244 239
239 251 262 275 290 294 298 304 306 306 305 304 302 300 298 295 291 287 285 282 277 273 271 269 268 263 261 261 256 254 251 250 251 252 251 247 242 238 234 234 235 235 230
248 261 268 283 295 304 302 305 307 307 309 310 308 305 303 299 294 292 288 284 280 275 273 270 269 267 260 259 255 252 250 248 247 248 245 242 237 235 230 225 225 227 221
258 266 270 293 303 308 306 306 307 310 313 315 314 311 309 305 302 299 294 289 284 278 274 272 271 268 263 257 255 253 248 244 244 244 242 239 234 228 225 222 222 222 219
257 263 279 294 300 305 310 314 316 317 318 318 316 313 310 308 305 303 298 294 287 282 276 273 272 270 265 259 255 253 248 244 240 241 238 233 228 223 221 219 219 220 218
254 264 281 285 297 310 317 319 320 320 320 319 318 316 314 310 306 304 302 297 291 285 278 273 271 269 266 260 256 252 248 244 236 236 234 231 228 221 219 218 217 218 217
244 262 273 274 292 307 317 320 322 323 323 322 320 318 315 312 308 304 301 298 295 290 284 277 272 267 264 261 257 252 247 243 237 234 233 231 228 222 218 217 218 217 213
240 247 256 269 289 307 320 324 325 326 326 324 322 320 317 315 312 307 303 300 296 292 288 282 277 271 266 261 257 252 247 244 238 235 234 232 227 223 219 216 216 215 210
234 241 256 273 296 310 319 324 325 326 328 326 324 322 320 318 316 312 307 303 299 294 289 284 279 272 267 262 256 251 246 243 240 235 232 230 226 222 218 215 215 214 210
229 234 248 278 300 310 316 322 324 327 329 329 329 326 323 321 318 315 310 306 302 298 292 285 279 273 267 261 256 250 245 240 236 234 231 229 225 221 218 217 216 214 210
226 239 263 286 302 309 315 321 325 328 330 331 330 328 326 324 321 318 314 310 306 300 295 287 280 274 267 263 257 250 244 239 234 232 231 228 225 220 218 218 219 214 210
232 252 275 289 301 308 316 320 324 328 331 332 332 330 328 326 324 322 320 316 313 307 300 292 283 274 268 263 257 249 243 238 234 231 228 227 224 220 218 218 218 216 211
238 258 279 291 297 304 314 320 325 331 334 335 335 333 331 329 326 325 324 322 317 312 304 295 287 278 270 264 257 248 241 236 232 230 227 225 223 220 219 218 218 217 214
248 262 278 294 300 310 317 321 326 333 336 338 339 338 336 334 330 328 327 325 322 317 308 298 289 281 273 264 256 247 241 237 234 228 226 224 222 219 218 217 219 218 215
244 256 274 291 304 312 316 321 327 332 336 339 341 342 342 339 335 331 329 328 327 322 314 303 293 283 274 265 256 247 241 237 233 228 224 223 221 218 219 219 219 219 215
244 259 274 289 301 311 316 322 327 332 337 340 343 344 344 342 340 337 334 333 330 326 322 313 300 288 277 265 257 249 242 237 232 228 224 222 222 219 219 218 220 219 216
249 261 274 286 299 309 316 323 328 333 339 342 343 344 344 343 342 341 339 338 335 331 327 322 311 295 281 267 256 249 243 237 231 227 224 221 221 220 218 219 220 220 218
252 262 274 286 299 307 315 323 327 332 338 341 343 345 345 345 344 343 342 340 338 335 333 327 319 303 287 269 256 248 244 238 230 227 224 221 220 220 220 220 218 219 219
260 266 276 287 298 306 313 320 326 331 336 341 343 345 347 347 347 346 345 343 341 339 337 333 325 314 296 273 257 248 244 239 231 228 224 222 220 220 219 219 220 221 219
264 273 280 286 296 304 310 317 323 330 335 340 343 345 348 349 348 348 346 345 344 343 341 338 331 322 307 281 260 249 244 238 232 229 227 224 222 221 219 219 220 220 219
273 277 282 288 294 300 306 313 319 327 333 338 342 344 347 349 349 349 348 347 347 346 345 343 339 332 318 292 269 255 246 241 234 230 227 225 222 221 221 219 218 219 219
277 279 282 286 290 294 302 309 316 323 329 335 340 342 345 348 349 350 350 349 349 349 350 350 348 343 331 307 283 264 252 245 238 230 226 226 223 221 219 218 219 219 221
Height
5875 5875 5875 5875 5875 5875 5875 5875 5875 5874 5874 5874 5874 5873 5873 5872 5872 5871 5871 5870 5870 5870 5870 5871 5871 5871 5871 5872 5872 5873 5873 5874 5874 5874 5874 5874 5873 5873 5873 5872 5871 5871 5870
5874 5874 5874 5874 5874 5874 5874 5874 5874 5873 5873 5872 5872 5871 5871 5870 5870 5869 5869 5868 5868 5868 5868 5868 5868 5869 5869 5870 5870 5871 5871 5872 5872 5872 5872 5872 5872 5872 5872 5871 5871 5870 5869
5874 5873 5873 5873 5873 5873 5873 5873 5872 5872 5871 5871 5870 5869 5869 5868 5867 5867 5866 5866 5865 5865 5866 5866 5866 5866 5867 5867 5868 5868 5869 5870 5870 5870 5870 5870 5871 5871 5870 5870 5870 5869 5869
5873 5873 5873 5872 5872 5872 5872 5871 5871 5870 5869 5869 5868 5867 5866 5865 5865 5864 5863 5863 5863 5863 5863 5863 5863 5863 5864 5864 5865 5866 5866 5867 5868 5868 5868 5868 5869 5869 5869 5869 5869 5868 5868
5872 5872 5872 5872 5871 5871 5870 5870 5869 5868 5868 5867 5866 5865 5864 5863 5862 5862 5861 5860 5860 5860 5859 5860 5860 5860 5861 5862 5862 5863 5863 5865 5865 5866 5866 5866 5867 5867 5868 5868 5868 5868 5868
5871 5871 5871 5870 5870 5870 5869 5868 5868 5867 5866 5865 5863 5862 5861 5860 5860 5859 5858 5857 5857 5857 5857 5857 5857 5857 5858 5858 5859 5860 5861 5862 5863 5863 5864 5864 5865 5866 5866 5867 5867 5867 5867
5870 5870 5869 5869 5869 5868 5868 5867 5866 5865 5864 5863 5862 5860 5859 5858 5857 5856 5855 5855 5854 5854 5854 5854 5853 5854 5854 5855 5856 5857 5858 5859 5860 5861 5861 5862 5863 5864 5864 5865 5866 5866 5866
5868 5868 5868 5868 5868 5867 5867 5866 5865 5864 5863 5861 5860 5859 5857 5856 5855 5854 5853 5852 5851 5851 5851 5850 5850 5850 5851 5851 5852 5853 5855 5856 5857 5858 5859 5860 5861 5861 5863 5864 5864 5865 5865
5867 5867 5867 5867 5867 5866 5865 5865 5864 5863 5861 5860 5859 5857 5856 5854 5853 5851 5850 5849 5848 5848 5847 5847 5847 5847 5847 5848 5849 5850 5851 5852 5854 5855 5856 5857 5858 5859 5861 5862 5863 5864 5864
5866 5866 5866 5866 5866 5865 5864 5863 5863 5861 5860 5859 5857 5855 5854 5852 5851 5849 5848 5847 5846 5845 5844 5844 5844 5844 5844 5844 5845 5846 5847 5848 5850 5852 5853 5855 5856 5857 5859 5860 5861 5862 5863
5865 5865 5865 5865 5865 5864 5863 5862 5861 5860 5859 5857 5855 5854 5852 5850 5848 5847 5845 5844 5843 5842 5841 5840 5840 5840 5840 5840 5841 5842 5843 5845 5846 5848 5850 5852 5854 5855 5857 5858 5860 5861 5862
5865 5865 5865 5864 5864 5863 5862 5861 5860 5859 5857 5855 5854 5852 5850 5848 5846 5844 5842 5841 5840 5839 5837 5837 5836 5836 5836 5836 5837 5838 5839 5841 5842 5844 5847 5849 5851 5853 5854 5856 5858 5859 5861
5864 5864 5864 5863 5863 5862 5862 5860 5859 5858 5856 5854 5852 5850 5847 5845 5843 5841 5840 5838 5836 5835 5834 5833 5832 5832 5831 5832 5833 5834 5835 5837 5838 5841 5843 5845 5847 5850 5852 5853 5856 5857 5859
5863 5863 5863 5863 5862 5861 5860 5859 5858 5856 5854 5852 5849 5847 5845 5843 5841 5839 5837 5835 5833 5831 5830 5829 5828 5828 5827 5828 5829 5830 5831 5833 5835 5837 5839 5842 5844 5846 5849 5851 5853 5855 5857
5862 5862 5862 5862 5861 5861 5859 5858 5856 5854 5852 5850 5847 5845 5843 5841 5838 5836 5834 5832 5830 5828 5826 5825 5824 5823 5823 5824 5824 5825 5827 5829 5830 5833 5835 5838 5840 5843 5846 5848 5851 5853 5855
5861 5861 5861 5861 5860 5860 5858 5857 5855 5853 5851 5848 5846 5843 5841 5838 5836 5834 5831 5829 5826 5824 5822 5820 5820 5819 5819 5819 5820 5821 5822 5824 5826 5828 5831 5834 5837 5839 5842 5845 5848 5850 5853
5860 5860 5860 5860 5859 5858 5857 5856 5854 5852 5849 5847 5844 5841 5838 5836 5833 5831 5828 5825 5823 5820 5818 5817 5815 5815 5815 5815 5815 5816 5818 5820 5822 5824 5827 5830 5833 5836 5838 5841 5845 5847 5850
5860 5860 5860 5859 5858 5857 5856 5854 5853 5850 5848 5845 5842 5839 5836 5834 5831 5828 5826 5823 5820 5817 5815 5813 5811 5811 5810 5810 5811 5812 5814 5815 5817 5820 5823 5826 5829 5832 5835 5838 5841 5844 5847
5859 5859 5859 5858 5857 5856 5855 5853 5851 5849 5846 5843 5841 5838 5835 5832 5829 5826 5823 5820 5817 5814 5811 5809 5807 5807 5806 5806 5807 5808 5809 5811 5813 5815 5818 5822 5825 5828 5831 5834 5837 5841 5844
5858 5858 5858 5857 5856 5855 5854 5852 5850 5848 5845 5842 5839 5836 5833 5830 5827 5823 5820 5817 5814 5811 5808 5806 5804 5803 5802 5802 5803 5804 5805 5807 5809 5811 5814 5817 5820 5824 5827 5831 5834 5837 5840
5857 5857 5857 5856 5855 5854 5853 5851 5849 5847 5844 5841 5838 5835 5831 5828 5825 5821 5818 5815 5811 5808 5805 5803 5801 5800 5799 5799 5800 5800 5801 5803 5805 5807 5810 5813 5816 5820 5823 5827 5830 5833 5836
5855 5856 5855 5855 5854 5853 5851 5850 5848 5845 5843 5840 5837 5834 5830 5827 5823 5820 5816 5813 5809 5806 5803 5800 5798 5797 5796 5796 5797 5797 5798 5800 5801 5803 5806 5809 5812 5816 5819 5823 5826 5829 5833
5854 5854 5854 5853 5853 5852 5850 5848 5847 5844 5842 5839 5836 5832 5829 5825 5822 5818 5815 5811 5808 5804 5801 5798 5796 5795 5794 5793 5793 5794 5795 5796 5798 5800 5802 5805 5808 5812 5815 5819 5822 5826 5829
5853 5853 5852 5852 5851 5850 5849 5847 5845 5843 5841 5838 5835 5831 5828 5824 5821 5817 5813 5810 5806 5803 5800 5797 5795 5793 5792 5792 5792 5792 5793 5794 5795 5797 5799 5802 5805 5808 5811 5815 5818 5822 5825
5851 5851 5851 5851 5850 5849 5847 5846 5844 5842 5839 5836 5833 5830 5827 5823 5820 5816 5812 5808 5805 5802 5799 5796 5793 5792 5791 5790 5790 5791 5791 5792 5793 5794 5796 5798 5801 5804 5807 5810 5814 5818 5821
5850 5850 5849 5849 5848 5847 5845 5844 5842 5840 5838 5835 5832 5829 5826 5822 5819 5815 5811 5807 5804 5801 5798 5795 5793 5791 5790 5790 5789 5789 5790 5790 5791 5792 5794 5795 5798 5801 5803 5807 5810 5814 5817